SCP
0 0 0 0 0 0 0 0 0 0 0 0 0 0 0 0 0 0 0 0 0 0 0 0 0 0 0 0 0 0 0 0 0 0 0 0 0 0 0 0 0 0 0 0
0 0 0 0 0 0 0 0 0 0 0 0 0 0 0 0 0 0 0 0 0 0 0 0 0 0 0 0 0 0 0 0 0 0 0 0 0 0 0 0 0 0 0 0
0 0 0 0 0 0 0 0 0 0 0 0 0 0 0 0 0 0 0 0 0 0 0 0 0 0 0 0 0 0 0 0 0 0 0 0 0 0 0 0 0 0 0 0
0 0 0 0 0 0 0 0 0 0 0 0 0 0 0 0 0 0 0 0 0 0 0 0 0 0 0 0 0 0 0 0 0 0 0 0 0 0 0 0 0 0 0 0
0 0 0 0 0 0 0 0 0 0 0 0 0 0 0 0 0 0 0 0 0 0 0 0 0 0 0 0 0 0 0 0 0 0 0 0 0 0 0 0 0 0 0 0
0 0 0 0 0 0 0 0 0 0 0 0 0 0 0 0 0 0 0 0 0 0 0 0 0 0 0 0 0 0 0 0 0 0 0 0 0 0 0 0 0 0 0 0
0 0 0 0 0 0 0 0 0 0 0 0 0 0 0 0 0 0 0 0 0 0 0 0 0 0 0 0 0 0 0 0 0 0 0 0 0 0 0 0 0 0 0 0
0 0 0 0 0 0 0 0 0 0 0 0 0 0 0 0 0 0 0 0 0 0 0 0 0 0 0 0 0 0 0 0 0 0 0 0 0 0 0 0 0 0 0 0
0 0 0 0 0 0 0 0 0 0 0 0 0 0 0 0 0 0 0 0 0 0 0 0 0 0 0 0 0 0 0 0 0 0 0 0 0 0 0 0 0 0 0 0
0 0 0 0 0 0 0 0 0 0 0 0 0 0 0 0 0 0 0 0 0 0 0 0 0 0 0 0 0 0 0 0 0 0 0 0 0 0 0 0 0 0 0 0
0 0 0 0 0 0 0 0 0 0 0 0 0 0 0 0 0 0 0 0 0 0 0 0 0 0 0 0 0 0 0 0 0 0 0 0 0 0 0 0 0 0 0 0
0 0 0 0 0 0 0 0 0 0 0 0 0 0 0 0 0 0 0 0 0 0 0 0 0 0 0 0 0 0 0 0 0 0 0 0 0 0 0 0 0 0 0 0
0 0 0 0 0 0 0 0 0 0 0 0 0 0 0 0 0 0 0 0 0 0 0 0 0 0 0 0 0 0 0 0 0 0 0 0 0 0 0 0 0 0 0 0
0 0 0 0 0 0 0 0 0 0 0 0 0 0 0 0 0 0 0 0 0 0 0 0 0 0 0 0 0 0 0 0 0 0 0 0 0 0 0 0 0 0 0 0
0 0 0 0 0 0 0 0 0 0 0 0 0 0 0 0 0 0 0 0 0 0 0 0 0 0 0 0 0 0 0 0 0 0 0 0 0 0 0 0 0 0 0 0
0 0 0 0 0 0 0 0 0 0 0 0 0 0 0 0 0 0 0 0 0 0 0 0 0 0 0 0 0 0 0 0 0 0 0 0 0 0 0 0 0 0 0 0
0 0 0 0 0 0 0 0 0 0 0 0 0 0 0 0 0 0 0 0 0 0 0 0 0 0 0 0 0 0 0 0 0 0 0 0 0 0 0 0 0 0 0 0
0 0 0 0 0 0 0 0 0 0 0 0 0 0 0 0 0 0 0 0 0 0 0 0 0 0 0 0 0 0 0 0 0 0 0 0 0 0 0 0 0 0 0 0
0 0 0 0 0 0 0 0 0 0 0 0 0 0 0 0 0 0 0 0 0 0 0 0 0 0 0 0 0 0 0 0 0 0 0 0 0 0 0 0 0 0 0 0
0 0 0 0 0 0 0 0 0 0 0 0 0 0 0 0 0 0 0 0 0 0 0 0 0 0 0 0 0 0 0 0 0 0 0 0 0 0 0 0 0 0 0 0
0 0 0 0 0 0 0 0 0 0 0 0 0 0 0 0 0 0 0 0 0 0 0 0 0 0 0 0 0 0 0 0 0 0 0 0 0 0 0 0 0 0 0 0
0 0 0 0 0 0 0 0 0 0 0 0 0 0 0 0 0 0 0 0 0 0 0 0 0 0 0 0 0 0 0 0 0 0 0 0 0 0 0 0 0 0 0 0
0 0 0 0 0 0 0 0 0 0 0 0 0 0 0 0 0 0 0 0 0 0 0 0 0 0 0 0 0 0 0 0 0 0 0 0 0 0 0 0 0 0 0 0
0 0 0 0 0 0 0 0 0 0 0 0 0 0 0 0 0 0 0 0 0 0 0 0 0 0 0 0 0 0 0 0 0 0 0 0 0 0 0 0 0 0 0 0
0 0 0 0 0 0 0 0 0 0 0 0 0 0 0 0 0 0 0 0 0 0 0 0 0 0 0 0 0 0 0 0 0 0 0 0 0 0 0 0 0 0 0 0
0 0 0 0 0 0 0 0 0 0 0 0 0 0 0 0 0 0 0 0 0 0 0 0 0 0 0 0 0 0 0 0 0 0 0 0 0 0 0 0 0 0 0 0
0 0 0 0 0 0 0 0 0 0 0 0 0 0 0 0 0 0 0 0 0 0 0 0 0 0 0 0 0 0 0 0 0 0 0 0 0 0 0 0 0 0 0 0
Wind_Speed
7 5 5 6 7 7 7 7 6 5 4 2 2 2 3 3 3 3 3 3 3 3 3 3 3 3 2 2 2 2 2 2 2 2 2 2 2 2 1 1 1 2 2 2
9 7 7 9 9 9 8 7 8 7 6 2 0 0 1 2 3 3 3 3 3 3 3 2 3 3 2 3 3 3 3 2 2 2 1 1 2 3 2 2 1 2 2 2
7 6 8 10 8 8 7 7 7 7 4 0 1 1 0 1 2 3 3 2 2 2 2 2 2 2 2 3 3 3 3 3 3 2 2 2 2 2 3 2 2 2 2 2
6 7 10 3 1 3 5 7 6 4 2 1 1 0 1 1 1 2 2 2 2 1 1 2 2 2 2 2 3 3 2 2 3 3 3 2 2 2 3 3 3 2 2 2
6 8 8 5 3 3 4 6 4 3 2 0 1 1 2 2 1 2 2 1 1 1 2 2 2 2 2 2 2 2 2 2 3 3 3 3 3 3 2 2 3 3 3 3
7 7 7 2 3 1 4 6 2 2 1 0 0 2 1 2 2 1 1 1 1 1 1 2 2 2 2 2 2 2 2 3 3 4 4 4 4 3 3 3 3 3 3 3
9 9 6 2 4 2 4 1 2 0 0 1 1 1 0 1 1 1 1 1 1 1 1 1 1 1 1 2 2 2 1 2 3 3 4 4 4 3 3 3 3 3 3 2
9 10 6 4 4 4 1 2 2 2 1 1 1 1 1 1 1 1 1 1 1 1 1 1 2 1 1 1 1 1 1 2 2 3 4 3 3 3 3 3 4 3 3 2
4 3 0 1 1 2 3 2 2 2 2 2 1 1 1 1 1 1 1 1 1 1 2 1 2 2 2 1 1 1 1 2 3 3 3 3 4 4 3 3 3 3 3 3
6 4 3 3 2 1 2 3 3 3 3 2 2 2 2 1 1 1 1 1 1 1 2 2 1 2 2 1 1 2 2 2 2 3 3 3 2 3 3 3 3 3 3 3
8 6 4 4 3 2 2 3 4 4 4 3 3 2 2 2 2 2 1 1 2 2 3 3 2 2 2 2 2 2 2 1 1 1 2 2 2 1 3 3 4 4 4 4
6 5 5 4 3 3 3 4 4 4 4 4 4 3 3 3 2 1 2 2 2 2 3 3 3 3 2 2 2 2 2 2 1 1 2 2 2 1 1 3 4 5 4 4
6 5 4 4 4 4 5 5 5 4 4 4 4 4 4 3 2 2 2 3 3 2 2 2 2 2 2 2 3 3 3 2 2 2 2 3 3 3 2 0 2 3 4 5
4 4 6 5 4 4 5 5 5 4 4 4 4 3 3 3 2 3 3 3 2 2 3 2 2 3 3 3 3 3 3 3 2 2 3 3 3 3 3 3 2 2 3 5
6 6 6 4 4 4 5 5 5 5 4 4 4 3 3 3 3 3 3 3 2 3 3 2 3 3 3 3 3 3 3 2 2 2 2 3 3 3 3 3 3 3 2 3
6 5 4 5 5 5 5 5 5 5 4 4 4 3 3 3 2 2 2 2 3 3 3 2 2 2 3 3 3 2 3 4 4 3 2 2 3 3 3 3 3 3 3 3
6 5 5 5 6 5 5 5 5 5 4 4 3 3 3 3 3 2 2 3 3 2 2 2 1 1 2 3 3 2 2 3 5 4 3 3 2 3 3 3 3 3 3 3
5 5 5 4 4 4 4 4 4 4 3 2 2 3 3 3 3 3 2 2 2 1 1 1 0 1 2 2 2 2 2 2 2 3 3 2 2 3 3 3 3 3 3 3
5 5 4 4 3 3 3 3 3 3 2 2 2 3 3 3 2 2 2 2 2 2 1 0 1 2 2 1 1 1 2 2 2 2 2 3 3 2 2 3 2 2 3 3
5 5 4 4 3 3 3 2 2 2 2 1 1 2 2 3 2 2 2 2 2 1 1 1 2 2 1 1 1 1 2 2 2 2 2 3 3 3 3 3 3 3 3 3
5 4 3 3 3 3 3 3 2 2 1 1 1 2 2 2 2 2 2 2 1 1 0 2 2 1 0 1 2 2 2 2 2 3 2 2 3 3 3 3 3 3 3 3
4 3 3 3 3 3 2 2 2 1 1 2 2 2 2 2 2 2 2 1 1 1 1 2 1 0 1 2 2 2 3 3 2 2 2 2 2 3 3 3 3 3 3 3
3 3 3 3 3 3 2 2 2 1 1 2 2 2 2 2 2 2 2 1 1 1 2 1 1 2 2 2 3 3 3 3 2 2 2 2 2 2 2 3 2 2 3 3
3 3 3 2 2 2 3 2 2 1 1 2 2 2 2 2 2 2 1 1 1 2 2 2 3 3 3 2 2 2 2 2 2 2 2 2 2 2 2 2 2 2 2 3
3 3 3 3 3 2 3 3 2 1 1 1 2 2 2 2 2 1 1 1 2 2 2 3 4 4 3 2 2 2 2 2 2 1 1 2 2 2 2 2 2 2 2 2
3 3 2 2 2 2 2 2 1 1 1 1 1 1 1 1 0 1 1 1 2 2 1 1 2 2 2 2 1 1 1 1 2 2 2 1 2 2 2 2 2 2 2 2
3 2 2 2 2 2 2 1 1 1 1 2 2 1 1 1 0 1 1 1 1 1 1 1 1 1 1 1 1 1 1 1 1 1 1 1 1 1 2 2 2 2 2 2
Wind_Direction
281 284 281 274 264 254 253 259 270 284 289 287 152 155 147 144 148 146 149 152 151 162 173 178 181 177 171 175 173 180 190 204 203 200 177 167 158 160 153 142 143 125 118 114
269 268 265 263 257 253 251 260 267 275 278 300 164 144 147 149 156 151 146 155 159 165 169 186 184 182 181 177 183 187 189 204 191 179 183 174 173 157 143 130 116 97 107 105
266 262 267 255 244 241 246 253 259 263 268 302 254 234 194 143 151 150 150 161 173 179 187 196 188 178 186 185 182 183 187 189 175 175 186 179 167 144 145 144 135 138 136 117
262 256 256 249 202 238 256 258 261 267 276 230 220 347 110 102 112 133 144 156 169 196 198 204 196 186 181 163 167 175 184 186 170 169 172 167 154 158 164 162 154 151 145 140
259 258 259 238 205 215 262 270 267 269 265 141 103 213 165 109 92 105 131 139 161 224 216 198 203 182 165 163 171 185 191 189 176 171 176 176 180 182 178 165 162 156 162 156
253 259 263 213 139 151 266 261 235 241 197 104 257 246 212 112 120 126 121 118 177 242 207 184 193 177 181 191 197 201 202 202 188 179 179 187 193 186 174 163 156 152 156 164
247 254 261 155 138 186 246 272 100 124 97 188 272 306 348 140 126 130 140 168 214 207 173 185 183 175 203 227 218 203 192 195 182 173 182 187 187 184 171 162 161 164 161 165
236 245 242 156 190 232 324 50 49 19 4 327 324 17 40 104 138 153 162 196 218 191 177 178 176 173 212 228 223 171 174 183 186 181 181 182 179 182 175 168 170 177 172 178
247 249 169 180 265 316 351 345 354 358 352 328 308 308 242 215 212 206 209 221 211 195 193 182 174 172 196 211 180 187 189 198 197 191 182 177 182 181 175 179 182 187 183 187
263 246 237 252 270 347 341 342 347 336 334 312 273 237 225 232 244 247 228 215 222 205 201 201 193 194 189 181 201 202 204 198 198 191 181 174 173 175 176 182 188 194 191 191
259 269 270 243 262 288 308 317 319 320 314 303 290 267 263 254 253 263 241 219 225 217 206 205 198 196 178 181 201 208 206 186 178 178 179 174 160 176 183 183 187 191 199 195
259 273 276 281 298 292 283 283 288 289 289 292 289 261 263 264 255 241 246 252 242 235 213 209 197 192 184 192 202 201 200 197 198 209 187 171 161 149 120 173 170 171 173 175
277 294 297 295 299 289 272 275 278 277 274 275 274 256 246 250 241 231 243 253 249 241 235 215 194 191 194 209 209 203 205 204 201 204 194 186 181 178 186 183 143 168 174 174
281 287 278 278 281 284 279 275 271 273 273 268 268 262 260 252 235 230 239 245 250 258 242 222 200 198 205 216 220 216 212 207 213 211 200 199 198 191 187 188 193 210 200 187
270 268 270 281 285 281 275 272 265 260 260 263 264 252 250 244 235 232 234 240 237 249 240 228 214 205 198 217 225 220 217 211 217 218 210 203 197 191 191 192 198 191 171 176
273 266 264 268 271 273 270 264 264 263 258 258 257 251 254 252 248 235 225 226 235 240 224 222 225 208 191 213 233 227 217 216 220 219 220 207 198 196 195 198 202 194 190 181
268 258 258 262 265 267 267 264 262 266 264 260 254 249 247 245 240 239 232 230 238 239 221 217 227 212 201 214 222 221 220 218 215 215 217 210 198 197 196 199 205 197 196 183
267 267 262 260 254 252 260 264 261 265 262 264 264 250 243 236 235 239 242 241 230 230 234 197 239 249 227 224 226 214 210 216 223 219 207 202 198 194 195 198 205 202 188 177
261 263 269 275 276 275 270 268 273 276 260 247 248 245 243 246 246 243 243 238 216 228 246 83 277 258 250 233 260 225 212 213 227 227 205 191 197 198 195 195 202 209 191 179
266 258 259 266 271 270 274 277 279 279 276 266 261 262 256 250 240 235 234 225 203 206 211 206 223 241 250 251 287 249 230 220 218 219 213 199 197 199 201 197 199 201 196 191
275 270 267 268 271 276 271 264 259 262 279 274 260 266 274 277 265 246 235 236 202 109 166 237 224 219 227 283 260 241 232 227 222 215 216 215 204 201 203 197 196 195 191 187
276 278 278 276 273 270 266 261 255 252 252 251 256 265 273 273 274 271 251 227 177 154 238 237 204 197 288 284 243 237 230 224 224 218 213 213 209 202 201 197 195 194 188 181
290 284 276 275 271 272 284 281 269 252 248 254 258 260 260 263 254 246 251 229 174 200 242 244 234 228 268 249 235 231 227 220 218 216 215 215 217 210 200 199 195 191 184 180
329 330 322 312 305 298 288 287 280 267 257 267 265 265 261 262 266 263 257 220 219 217 238 229 223 229 248 244 235 229 228 223 214 209 208 212 215 214 207 202 197 191 187 186
320 319 319 318 306 302 302 304 302 299 286 275 274 279 276 260 250 258 257 231 223 229 237 225 233 234 228 235 237 235 230 225 226 221 208 207 209 207 195 192 195 193 193 196
325 322 319 311 308 306 306 312 316 322 308 296 289 296 312 316 262 227 229 232 239 251 243 224 219 222 220 216 226 240 232 213 213 216 207 199 194 197 193 188 195 199 199 197
319 321 328 325 321 319 319 320 305 297 299 300 300 309 304 299 272 222 206 202 206 214 223 231 231 233 212 194 201 222 223 202 183 185 195 188 183 191 190 184 183 184 188 191